Location: Phoenix
(33.4480°N, 112.0730°W)
Time: 03:42:22
(UTC-07:00)

Cosmos 1470 Rocket - Visible Passes

Search period start: 16 January 2017 00:00
Search period end: 26 January 2017 00:00
Orbit: 603 x 635 km, 82.5° (Epoch: 15 January)

Date Brightness Start Highest point End Pass type
(mag) Time Alt. Az. Time Alt. Az. Time Alt. Az.
17 Jan 6.4 06:36:20 10° NE 06:38:56 16° ENE 06:41:34 10° ESE visible
18 Jan 5.6 06:52:39 10° NNE 06:56:29 30° E 07:00:18 10° SE visible
19 Jan 5.4 19:36:37 10° SSE 19:37:48 18° SSE 19:37:48 18° SSE visible
20 Jan 4.6 19:53:45 10° S 19:56:25 37° SSW 19:56:25 37° SSW visible
21 Jan 6.4 06:07:50 10° NE 06:10:38 17° ENE 06:13:26 10° ESE visible
21 Jan 5.3 18:36:10 10° ESE 18:37:51 13° E 18:37:51 13° E visible
21 Jan 4.9 20:11:26 10° SSW 20:15:06 38° W 20:15:06 38° W visible
22 Jan 5.4 06:24:15 10° NNE 06:28:09 32° E 06:32:03 10° SE visible
22 Jan 4.5 18:51:41 10° SE 18:55:14 25° E 18:56:38 21° ENE visible
22 Jan 6.0 20:29:47 10° SW 20:33:00 20° WNW 20:33:53 19° WNW visible
23 Jan 4.0 06:41:15 10° N 06:45:35 66° E 06:49:55 10° SSE visible
23 Jan 3.6 19:08:15 10° SSE 19:12:28 51° E 19:15:28 18° NNE visible
23 Jan 6.8 20:50:15 10° WNW 20:50:36 10° WNW 20:50:56 10° WNW visible
24 Jan 3.6 06:58:38 10° NNW 07:02:55 59° W 07:07:12 10° S visible
24 Jan 3.6 19:25:27 10° S 19:29:47 77° W 19:34:07 10° N visible
25 Jan 6.4 05:39:21 10° NNE 05:42:19 18° ENE 05:45:17 10° ESE visible
25 Jan 5.0 19:43:10 10° SSW 19:47:11 36° W 19:51:12 10° NNW visible
